Regional Weather Roundup
Issued by NWS

Home | Current Version | Previous Version | Graphics & Text | Print | Product List | Glossary On
Versions: 1 2 3 4 5 6 7 8 9 10 11 12 13 14 15 16 17 18 19 20 21 22 23 24 25 26 27 28 29 30 31 32 33 34 35 36 37 38 39 40 41 42 43 44 45 46 47 48 49 50
000
ASUS43 KBIS 031001
RWRND

NORTH DAKOTA REGIONAL WEATHER ROUNDUP
NATIONAL WEATHER SERVICE BISMARCK ND
500 AM CDT SUN MAY 03 2015

NOTE: "FAIR" INDICATES FEW OR NO CLOUDS BELOW 12,000 FEET WITH NO
SIGNIFICANT WEATHER AND/OR OBSTRUCTIONS TO VISIBILITY.


NDZ001>003-009>011-017-031100-
NORTHWEST NORTH DAKOTA

CITY           SKY/WX    TMP DP  RH WIND       PRES   REMARKS
WILLISTON      MOCLDY    45  34  65 N6        29.93R
MINOT          CLOUDY    49  36  61 W15       29.86R
MINOT AFB      MOCLDY    47  39  72 NW10      29.85R
$$

NDZ018>021-031>035-040>046-031100-
SOUTHWEST NORTH DAKOTA

CITY           SKY/WX    TMP DP  RH WIND       PRES   REMARKS
BISMARCK       CLOUDY    55  37  50 NW13      29.86R
DICKINSON      CLOUDY    50  35  56 N8        29.89R
GARRISON         N/A     49  38  65 NW9       29.87R
HETTINGER ARPT PTCLDY    50  36  58 N14       29.88R
$$

NDZ004>008-012>016-024-026-027-054-031100-
NORTHEAST NORTH DAKOTA

CITY           SKY/WX    TMP DP  RH WIND       PRES   REMARKS
GRAND FORKS    PTCLDY    46  40  79 NW7       29.71R
GRND FRKS AFB  PTCLDY    48  40  73 NW8       29.72R
DEVILS LAKE    PTCLDY    50  36  57 NW12      29.77R
$$

NDZ022-023-025-028>030-036>039-047>053-031100-
SOUTHEAST NORTH DAKOTA

CITY           SKY/WX    TMP DP  RH WIND       PRES   REMARKS
FARGO          CLEAR     52  43  71 N13       29.69R
JAMESTOWN      PTCLDY    50  37  61 N12       29.75R
$$




USA.gov is the U.S. government's official web portal to all federal, state and local government web resources and services.